Regional Weather Roundup
Issued by NWS Portland, ME

Current Version | Previous Version | Text Only | Print | Product List | Glossary On
Versions: 1 2 3 4 5 6 7 8 9 10 11 12 13 14 15 16 17 18 19 20 21 22 23 24 25 26 27 28 29 30 31 32 33 34 35 36 37 38 39 40 41 42 43 44 45 46 47 48 49 50
000
ASUS41 KGYX 210110
RWRGYX
WEATHER ROUNDUP FOR MAINE AND NEW HAMPSHIRE
NATIONAL WEATHER SERVICE GRAY ME
800 PM EST THU FEB 20 2020

MEZ002-005-006-010-012-015-018-020-021-024-026-027-029-210200-
MAINE

CITY           SKY/WX    TMP DP  RH WIND       PRES   REMARKS
PORTLAND       FAIR      20  -1  40 N7        30.41R
SANFORD        FAIR      18   4  54 N8        30.40R
BAR HARBOR     FAIR      14  -2  49 NW5       30.39R
WISCASSET      FAIR      16  -4  41 VRB5      30.43R
ROCKLAND       FAIR      16  -1  47 VRB5      30.40R
FRYEBURG       FAIR      15  -4  42 NW9       30.39R
LEWISTONAUBURN FAIR      13  -2  51 CALM      30.40R
AUGUSTA        FAIR      12  -6  44 NW8       30.40R
WATERVILLE     FAIR      10  -4  53 W5        30.37R
BANGOR         FAIR      12  -9  38 NW7       30.39R
GREENVILLE       N/A      1 -12  54 NW13      30.26R WCI -17
MILLINOCKET    FAIR       5 -11  47 W12       30.38R WCI -11
HOULTON        FAIR       3 -13  47 NW5       30.33R
PRESQUE ISLE   FAIR      -1 -13  56 W6        30.33R
FRENCHVILLE    FAIR      -3 -12  65 W8        30.23S
CARIBOU        FAIR      -4 -15  59 W5        30.29R
$$

NHZ002-005-008-009-011-012-014-210200-
NEW HAMPSHIRE

CITY           SKY/WX    TMP DP  RH WIND       PRES   REMARKS
PORTSMOUTH     PTCLDY    22   3  45 NW10      30.39R WCI  11
ROCHESTER      FAIR      17   3  54 NW6       30.39R
NASHUA         FAIR      24   8  50 NW5       30.40R
MANCHESTER     FAIR      25   4  40 NW7       30.38R
CONCORD        FAIR      19   3  49 N6        30.40R
LACONIA        FAIR      16   2  54 W5        30.39R
PLYMOUTH       FAIR      11   1  63 CALM      30.40R
BERLIN         FAIR       3  -9  57 W3        30.35R
WHITEFIELD     FAIR      -3  -7  82 CALM      30.37R
JAFFREY        FAIR      19   5  54 VRB5      30.34R
KEENE          MOCLDY    21   8  57 S5        30.40R
LEBANON        FAIR      15   0  51 N6        30.40R
MT WASHINGTON  ICE FOG  -15 -15 100 W61         N/A  VSB 1/8 WCI -55
$$

VTZ005-007-008-210200-
VERMONT

CITY           SKY/WX    TMP DP  RH WIND       PRES   REMARKS
ST JOHNSBURY     N/A      9  -5  53 MISG      30.41R
MONTPELIER     FAIR       5  -6  60 W3        30.42R
BURLINGTON     FAIR      10  -4  53 NE6       30.47R
$$

MAZ007-012-024-CTZ003-RIZ002-NYZ038-NYZ072-210200-
SOUTHERN NEW ENGLAND AND NY

CITY           SKY/WX    TMP DP  RH WIND       PRES   REMARKS
BOSTON         FAIR      32   7  35 W10       30.40R
WORCESTER      FAIR      21   3  45 W9        30.35R
NANTUCKET      FAIR      30  16  56 W10       30.38S
PROVIDENCE     FAIR      28   8  43 N7        30.41R
HARTFORD       FAIR      25   5  42 NW16      30.43R WCI  12
ALBANY         MOCLDY    23   4  44 NW8       30.47R
NEW YORK CITY  MOCLDY    33  11  39 NW17      30.42R
$$

ANZ081-ANZ082-ANZ150-NHZ014-MEZ023>029-210200-
COASTAL MARINE OBSERVATIONS

STATION/POSITION TIME  TEMP    WIND        PRES    WAVE
                       AIR SEA DIR/SP/G            HT/PER
                 (UTC) (F)     (DEG/KT/KT) (MB)    (FT/S)
MOUNT DESERT ROC 0100          300/ 25/ 28 1028.0R
ISLE OF SHOALS   0000   26     340/ 16/ 19 1028.5R
JEFFREYS LEDGE   0038      43                N/A     3/ 4
GEORGES BANK BUO 0050      43              1029.0R   7/ 8
$$

.............KEY..............
   WCI - WIND CHILL
   TC  - TEMPERATURE IN CELSIUS
   VSB - VISIBILITY IN MILES
   HX  - HEAT INDEX
   FAIR- INDICATES FEW OR NO CLOUDS BELOW 12,000 FT, WITH NO
         SIGNIFICANT WEATHER AND/OR OBSTRUCTIONS TO VISIBILITY.






USA.gov is the U.S. government's official web portal to all federal, state and local government web resources and services.